Printer-friendly version

IAU Minor Planet Center

Minor Planet Center

MPEC 2009-C43 : 2009 CC2

The following Minor Planet Electronic Circular may be linked-to from your own Web pages, but must not otherwise be redistributed electronically.


Read MPEC 2009-C42 Read MPEC 2009-C44


M.P.E.C. 2009-C43                                Issued 2009 Feb. 4, 17:17 UT

     The Minor Planet Electronic Circulars contain information on unusual
         minor planets and routine data on comets.  They are published
   on behalf of Commission 20 of the International Astronomical Union by the
          Minor Planet Center, Smithsonian Astrophysical Observatory,
                          Cambridge, MA 02138, U.S.A.

             Prepared using the Tamkin Foundation Computer Network

                              MPC@CFA.HARVARD.EDU
          URL http://www.cfa.harvard.edu/iau/mpc.html  ISSN 1523-6714

                                   2009 CC2

Observations:
     K09C02C* C2009 02 04.22436 09 24 53.96 +23 47 09.0          19.3 V EC043703
     K09C02C  C2009 02 04.23414 09 24 48.42 +23 45 57.8          20.0 V EC043703
     K09C02C  C2009 02 04.24384 09 24 43.05 +23 44 45.8          19.6 V EC043703
     K09C02C  C2009 02 04.25362 09 24 37.69 +23 43 37.0          20.1 V EC043703
     K09C02C  C2009 02 04.29162 09 24 16.70 +23 38 59.3          19.6 V EC043G96
     K09C02C  C2009 02 04.29218 09 24 16.38 +23 38 54.9          19.4 V EC043G96
     K09C02C  C2009 02 04.29273 09 24 16.09 +23 38 51.3          19.7 V EC043G96
     K09C02C  C2009 02 04.29328 09 24 15.80 +23 38 47.0          19.4 V EC043G96
     K09C02C  C2009 02 04.31616 09 24 03.44 +23 36 05.2          19.3 R EC043854
     K09C02C  C2009 02 04.32282 09 23 59.94 +23 35 18.4          19.3 R EC043854
     K09C02C  C2009 02 04.32949 09 23 56.48 +23 34 30.6          19.3 R EC043854
     K09C02C 5C2009 02 04.34537 09 23 51.60 +23 32 22.3          19.2 R EC043673
     K09C02C 5C2009 02 04.35012 09 23 49.31 +23 31 49.6                 EC043673
     K09C02C 5C2009 02 04.35428 09 23 47.14 +23 31 18.9                 EC043673
     K09C02C 5C2009 02 04.36088 09 23 43.86 +23 30 35.3                 EC043673
     K09C02C  C2009 02 04.36384809 23 30.30 +23 29 08.0          19.7 V EC043H55
     K09C02C  C2009 02 04.36756709 23 28.59 +23 28 41.0          19.1 V EC043H55
     K09C02C  C2009 02 04.37113909 23 26.98 +23 28 15.1          20.3 V EC043H55

Observer details:
673 Table Mountain Observatory, Wrightwood.  Observer J. Young.  0.61-m f/16
    Cassegrain + CCD.
703 Catalina Sky Survey.  Observer R. A. Kowalski.  Measurers E. C. Beshore,
    A. Boattini, G. J. Garradd, A. R. Gibbs, A. D. Grauer, R. E. Hill,
    R. A. Kowalski, S. M. Larson, R. H. McNaught.  0.68-m Schmidt + CCD.
854 Sabino Canyon Observatory, Tucson.  Observer J. E. McGaha.  0.36-m f/10.0
    Schmidt-Cassegrain + CCD.
G96 Mt. Lemmon Survey.  Observer A. Boattini.  Measurers E. C. Beshore,
    A. Boattini, G. J. Garradd, A. R. Gibbs, A. D. Grauer, R. E. Hill,
    R. A. Kowalski, S. M. Larson, R. H. McNaught.  1.5-m reflector + CCD.
H55 Astronomical Research Observatory, Charleston.  Observer R. Holmes.
    Measurer H. Devore.  0.61-m f/4.0 astrograph + CCD.

Orbital elements:
2009 CC2                                                 Earth MOID = 0.0013 AU
Epoch 2008 Nov. 30.0 TT = JDT 2454800.5                 MPC
M 353.09693              (2000.0)            P               Q
n   0.37294053     Peri.  275.18814     +0.67162121     -0.73988195
a   1.9115089      Node   132.54106     +0.69888025     +0.61531793
e   0.6788750      Incl.    3.01281     +0.24594990     +0.27195318
P   2.64           H   27.8           G   0.15           U   7
Residuals in seconds of arc
090204 703  0.1-  0.6-    090204 G96  0.3-  0.3-    090204 673  0.4+  0.3+
090204 703  1.1-  0.3+    090204 G96  0.1-  0.6-    090204 673  0.4-  1.6-
090204 703  0.5-  0.5-    090204 854  1.1-  0.1+    090204 673  0.1+  0.4+
090204 703  0.8+  2.2+    090204 854  0.7-  0.8+    090204 H55  0.2+  0.3+
090204 G96  0.2-  0.2-    090204 854  0.0   0.4+    090204 H55  0.5-  0.4+
090204 G96  0.4-  0.6-    090204 673  1.4-  0.1+    090204 H55  0.9-  0.4+

Ephemeris:
2009 CC2                 a,e,i = 1.91, 0.68, 3                   q = 0.6138
Date    TT    R. A. (2000) Decl.     Delta      r     Elong.  Phase     V
2009 02 02.1  20 52.80   -11 48.1    0.00682  0.979     5.6   174.4
2009 02 02.2  20 48.37   -09 59.4    0.00571  0.980     7.7   172.2
2009 02 02.3  20 41.89   -07 17.9    0.00461  0.981    10.9   169.1    32.1
2009 02 02.4  20 31.56   -02 56.0    0.00353  0.982    16.0   164.0    28.1
2009 02 02.5  20 12.49   +05 11.5    0.00249  0.983    25.4   154.5    24.1
2009 02 02.6  19 26.95   +23 03.3    0.00161  0.984    46.4   133.5    19.9
2009 02 02.7  16 35.78   +55 08.7    0.00127  0.986    91.4    88.5    16.4
2009 02 02.8  11 54.74   +53 34.6    0.00178  0.987   130.6    49.3    15.9
2009 02 02.9  10 34.73   +42 33.2    0.00268  0.988   147.9    32.0    16.3
2009 02 03.0  10 07.02   +36 25.0    0.00373  0.989   156.1    23.9    16.8

2009 02 04.0  09 24.96   +23 56.8    0.0148   1.000   171.6     8.3    19.2
2009 02 05.0  09 21.27   +22 39.0    0.0263   1.012   173.1     6.7    20.4
2009 02 06.0  09 19.32   +21 56.9    0.0376   1.023   173.7     6.0    21.2
2009 02 07.0  09 18.28   +21 33.9    0.0490   1.035   173.7     6.0    21.8
2009 02 08.0  09 17.65   +21 19.3    0.0604   1.046   173.4     6.2    22.3

Timothy B. Spahr             (C) Copyright 2009 MPC           M.P.E.C. 2009-C43

Read MPEC 2009-C42 Read MPEC 2009-C44


Our Web policy. Index to the CBAT/MPC/ICQ pages.


Valid HTML 4.01!